ORBCOMM FM 16 DEB

Satellite information

Favourite Embed

Satellite Type and Status

DEBRISIN ORBIT

Key statistics

Satellite ORBCOMM FM 16 DEB at a glance.

Uptime

9775

Days in orbit

Revolutions

≈ 14.4

Per day

Orbit

LEO

Low Earth Orbit

Inclination

45.0

Latest

Satellite identification and parameters

Extended collection of information and parameters for ORBCOMM FM 16 DEB.

Object identification

Identified? True

Debris? True

Object name: ORBCOMM FM 16 DEB

International designator: 1998-046T

Object number (NORAD): 44024

Object ID (CCSDS): 44024

Country: ORBITAL TELECOMMUNICATIONS SATELLITE (GLOBALSTAR) (ORB)

Current information (Y/N): Y

RCS size: SMALL

Orbital parameters

Period: 100.163 minutes

Inclination: 44.9973 deg

SMA: 7144.395 km

Apoapsis: 770.132 km

Periapsis: 762.389 km

RAAN: 12.0984 deg

Eccentricy: 0.0005419

Argument of periapsis: 79.9724 deg

Mean anomaly: 280.1736 deg

Mean motion: 14.37654546 rev/day

Mean motion (dot): 0.00001352 rev/day2

B* drag term: 0.00049282 1/REarth

Two-line elements (TLE)

Creation date: May 7, 2025, 3:14 a.m.

Reference frame: TEME

Reference center: EARTH

Epoch: May 6, 2025, 8:51 a.m. UTC

TLE line 0: 0 ORBCOMM FM 16 DEB

TLE line 1: 1 44024U 98046T 25126.36875436 .00001352 00000-0 49282-3 0 9998

TLE line 2: 2 44024 44.9973 12.0984 0005419 79.9724 280.1736 14.37654546333105

Live tracking on map

Real-time ground track for satellite ORBCOMM FM 16 DEB.

In-orbit conjunctions

A list of the most updated potential collisions computed for object ORBCOMM FM 16 DEB.

Target Orbit TCA Probability of collision Miss distance Type
ORBCOMM FM 28 LEO 2024-07-28 22:40:44 0.0002031623 185.0 (m) PAYLOAD

Associated space launch

ORBCOMM FM 16 DEB was lifted into orbit during the mission ‘Pegasus XL HAPS | Orbcomm-B1 - B8’, on board a Pegasus XL HAPS space rocket.

The launch took place on Aug. 2, 1998, 4:24 p.m. from Wallops Flight Facility.

For more information about the launch, click the button.

Launch to space Pegasus XL HAPS | Orbcomm-B1 - B8
Pegasus XL HAPS | Orbcomm-B1 - B8

Agency: N/A

Status: Launch Successful

Launch date: Aug. 2, 1998, 4:24 p.m. UTC

Rocket: Pegasus XL HAPS

Launch pad: Wallops Flight Facility

Location: Air launch to orbit

...

Latest news about this satellite

There are no fresh news available about this satellite. Check back as we update our databases every day.


Newsletter sign-up

Weekly statistics, charts and insights to help you stay on top of the space industry.